sat.trackr.live / text

‹ back to catalog

KUIPER-00488

NORAD 68879 · 2026-095R

PAYLOAD ACTIVE UNKNOWN

§ Identity

Operator
Country
US
Launch date
2026-04-28
Launch site
AFETR
Launch vehicle
Mass (kg)
RCS (m²)

External: N2YO · Heavens-Above · Gunter

§ Orbital elements

Epoch: 2026-05-24T23:23:24.792000Z

Period
93.77 min
Inclination
51.8701°
Eccentricity
0.0010836
Mean motion
15.35660041 rev/d
Perigee alt
451.6 km
Apogee alt
466.4 km
Semi-major
6,837.1 km
B*
6.5829e-4
RAAN
354.9286°
Arg perigee
225.1847°
Mean anomaly
134.8259°
Rev number
415

§ Raw data

KUIPER-004881 68879U 26095R   26144.97459250  .00022901  00000+0  65829-3 0  99942 68879  51.8701 354.9286 0010836 225.1847 134.8259 15.35660041  4159

JSON: /api/v1/satellites/68879 · /tle

For live sub-satellite position, see the globe view (requires WebGL).

§ Visibility from observer

Set your observer location to see the next 7 days of passes ≥ 10°. The values pass through the URL so the page stays shareable.

No JS? Fill the form by hand. The geolocation button needs JavaScript.